Oshkosh, WI

3:48 PM CDT on August 21, 2019 (GMT -0500)
Wittman Regional

Weather History for KOSH - July, 2019

Change the Weather History Date:

Thursday, July 18, 2019

  Actual Average Record
Temperature  
Mean Temperature 77 °F -  
Max Temperature 84 °F 84 °F 92 °F (1986)
Min Temperature 72 °F 63 °F 50 °F (2000)
Cooling Degree Days 12    
Growing Degree Days 27 (Base 50)    
Moisture  
Dew Point 71 °F    
Average Humidity 83    
Maximum Humidity 93    
Minimum Humidity 67    
Precipitation  
Precipitation 0.46 in - - ()
Sea Level Pressure  
Sea Level Pressure 29.76 in    
Wind  
Wind Speed 7 mph (SSW)    
Max Wind Speed 17 mph    
Max Gust Speed 34 mph    
Visibility 8 miles    
Events Rain , Thunderstorm    
Averages and records for this station are not official NWS values.
T = Trace of Precipitation, MM = Missing Value Source: NWS Daily Summary

Daily Weather History Graph

Daily Weather History Graph

Search for Another Location

Airport or City:

Astronomy

Jul. 18, 2019 Rise Set
Actual Time 5:27 AM CDT 8:32 PM CDT
Civil Twilight 4:53 AM CDT 9:07 PM CDT
Nautical Twilight 4:08 AM CDT 9:51 PM CDT
Astronomical Twilight 3:15 AM CDT 10:44 PM CDT
Moon 9:55 PM CDT (7/18) 6:58 AM CDT (7/18)
Length of Visible Light 16h 13m
Length of Day
15h 04m
Full, 97% of the Moon is Illuminated
Jul 18
Full
Jul 24
Last Quarter
Jul 31
New
Aug 7
First Quarter
Aug 15
Full

Hourly Weather History & Observations

Time (CDT) Temp. Heat Index Dew Point Humidity Pressure Visibility Wind Dir Wind Speed Gust Speed Precip Events Conditions
12:53 AM 72.0 °F - 69.1 °F 91% 29.82 in 6.0 mi South 5.8 mph - N/A   Scattered Clouds
1:53 AM 72.0 °F - 69.1 °F 91% 29.79 in 6.0 mi South 5.8 mph - N/A   Mostly Cloudy
2:53 AM 72.0 °F - 69.1 °F 91% 29.78 in 7.0 mi South 8.1 mph - N/A   Mostly Cloudy
3:53 AM 73.0 °F - 70.0 °F 90% 29.76 in 8.0 mi South 8.1 mph - N/A   Mostly Cloudy
4:53 AM 73.0 °F - 70.0 °F 90% 29.78 in 9.0 mi South 6.9 mph - N/A   Overcast
5:04 AM 73.0 °F - 70.0 °F 90% 29.83 in 9.0 mi SSW 5.8 mph - 0.00 in Rain , Thunderstorm Light Rain
5:19 AM 73.0 °F - 71.1 °F 93% 29.85 in 3.0 mi West 5.8 mph - 0.07 in Rain , Thunderstorm Heavy Thunderstorms and Rain
5:26 AM 73.9 °F - 70.0 °F 87% 29.85 in 2.5 mi WSW 8.1 mph - 0.08 in Rain , Thunderstorm Light Thunderstorms and Rain
5:33 AM 73.9 °F - 71.1 °F 91% 29.85 in 10.0 mi SSW 8.1 mph - 0.09 in Rain , Thunderstorm Light Thunderstorms and Rain
5:53 AM 73.0 °F - 70.0 °F 90% 29.82 in 5.0 mi SSW 9.2 mph - 0.11 in Rain , Thunderstorm Thunderstorms and Rain
6:06 AM 73.0 °F - 70.0 °F 90% 29.85 in 1.5 mi SW 8.1 mph - 0.05 in Rain , Thunderstorm Thunderstorms and Rain
6:20 AM 73.0 °F - 70.0 °F 90% 29.85 in 2.0 mi Variable 5.8 mph - 0.15 in Rain Heavy Rain
6:53 AM 72.0 °F - 69.1 °F 91% 29.77 in 4.0 mi ESE 8.1 mph - 0.27 in Rain Rain
7:53 AM 72.0 °F - 69.1 °F 91% 29.80 in 5.0 mi SSW 5.8 mph - 0.06 in Rain Light Rain
8:53 AM 72.0 °F - 66.9 °F 84% 29.74 in 10.0 mi Variable 5.8 mph - 0.02 in   Partly Cloudy
9:53 AM 73.0 °F - 68.0 °F 84% 29.74 in 10.0 mi NW 3.5 mph - N/A   Clear
10:33 AM 73.0 °F - 68.0 °F 84% 29.78 in 10.0 mi Variable 5.8 mph - N/A   Mostly Cloudy
10:53 AM 73.9 °F - 69.1 °F 85% 29.70 in 10.0 mi Variable 3.5 mph - N/A   Mostly Cloudy
11:53 AM 75.9 °F - 69.1 °F 79% 29.72 in 10.0 mi SSW 11.5 mph - N/A   Overcast
12:16 PM 77.0 °F - 69.1 °F 76% 29.77 in 10.0 mi SSW 12.7 mph 27.6 mph N/A   Scattered Clouds
12:53 PM 78.1 °F - 69.1 °F 74% 29.73 in 10.0 mi SW 17.3 mph 28.8 mph N/A   Mostly Cloudy
1:53 PM 80.1 °F 83.6 °F 71.1 °F 74% 29.69 in 10.0 mi SSW 13.8 mph 20.7 mph N/A   Mostly Cloudy
2:53 PM 81.0 °F 84.4 °F 70.0 °F 69% 29.70 in 10.0 mi SW 16.1 mph 34.5 mph N/A   Overcast
3:53 PM 82.9 °F 87.5 °F 71.1 °F 67% 29.70 in 10.0 mi SW 13.8 mph 21.9 mph N/A   Scattered Clouds
4:53 PM 82.9 °F 88.0 °F 72.0 °F 69% 29.69 in 10.0 mi SW 8.1 mph 18.4 mph N/A   Mostly Cloudy
5:53 PM 82.9 °F 88.8 °F 73.0 °F 72% 29.68 in 10.0 mi SW 10.4 mph - N/A   Overcast
6:53 PM 82.9 °F 88.8 °F 73.0 °F 72% 29.68 in 10.0 mi SW 5.8 mph - N/A   Scattered Clouds
7:53 PM 82.0 °F 87.4 °F 73.0 °F 74% 29.68 in 10.0 mi SSW 4.6 mph - N/A   Scattered Clouds
8:53 PM 79.0 °F - 73.9 °F 84% 29.69 in 10.0 mi SSW 5.8 mph - N/A   Clear
9:53 PM 79.0 °F - 73.9 °F 84% 29.70 in 10.0 mi SSW 5.8 mph - N/A   Clear
10:53 PM 79.0 °F - 73.9 °F 84% 29.70 in 10.0 mi SSW 8.1 mph - N/A   Clear
11:53 PM 79.0 °F - 75.0 °F 88% 29.69 in 10.0 mi South 6.9 mph - N/A   Clear